User: anonymous   Login
Location: Caltech
(34.1382°N, 118.1253°W)
Time: 10:44:38
(UTC-07:00)
Language:

TITAN 4B R/B - Orbit

View from above orbital plane
View from above orbital plane
View from above satellite
View from above satellite

Ground track
Ground track

The orbit data is extracted from the following two-line orbital elements,

1 28647U 05016B   15084.82841393 0.00004500  00000-0  27976-3 0    01
2 28647  56.9986  77.2895 0130577 300.9459  59.0541 15.02304271    02
Epoch (UTC): 25 March 2015 19:52:54
Eccentricity: 0.0130577
inclination: 56.9986°
perigee height: 469 km
apogee height: 650 km
right ascension of ascending node: 77.2895°
argument of perigee: 300.9459°
revolutions per day: 15.02304271
mean anomaly at epoch: 59.0541°
orbit number at epoch: 0

The dashed part of the orbit path shows where the satellite is in the earth's shadow,  

DLR